{"data":{"norad_id":65756,"epoch":"2026-05-24T20:35:32.412192Z","epoch_age_seconds":87249,"freshness":"FRESH","line1":"1 65756U 25216Y   26144.85801403  .00021942  00000+0  75043-3 0  9990","line2":"2 65756  53.1622 339.2102 0000939  88.7794 271.3315 15.30214639 38203","mean_motion":15.30214639,"eccentricity":9.39e-5,"inclination_deg":53.1622,"raan_deg":339.2102,"arg_perigee_deg":88.7794,"mean_anomaly_deg":271.3315,"bstar":0.00075043,"rev_number":3820,"period_min":94.104445435252,"perigee_km":474.52783469744,"apogee_km":475.81488600752,"semimajor_km":6853.3083603525,"source":"CELESTRAK","updated_at":"2026-05-25T13:38:20.934250Z"}}